(90482) Orcus
ephemeris date magn radius delta ra dec elong phase
Opposition6 Mar 202519.048.013 AU47.082 AU10h36m-13°22'159.5°0.4°
Today19 Apr 202519.148.011 AU47.324 AU10h33m-13°00'132.7°0.9°
(90482) Orcus - 2025-04-19
astro.vanbuitenen.nl


 
-1 year
-1 month
-1 day
Now
+1 day
+1 month
+1 year

The interactive orbit chart above shows the body's path through the solar system and its position at the given date. Green and blue lines are shown perpendicular to the ecliptic plane: Green if the path is above the ecliptic plane, blue if it is below. (Left-click and drag to rotate the view; Right-click and drag to move the view; Use scroll wheel to zoom in our out.)

The orbital elements of Orcus are:

            e (Eccentricity)                : 0.2231446
            a (Semimajor axis)              : 39.2890646
            i (Inclination)                 : 20.55553
            Ω (Longitude of ascending node) : 268.38604
            ω (Argument of perihelion)      : 73.79654
            M (Mean anomaly)                : 187.21828
            Epoch                           : 2025 May 05

            L (Longitude of perihelion)     : 341.14422
            B (Latitude of perihelion)      : 19.70440
            P (Orbital period in years)     : 246.27            
        

The light curve chart below shows the estimated development of the minor planet's magnitude.


The all-sky chart below shows the path of the minor planet over the same period as the light curve. The current position is marked yellow.





The following chart shows the path of the minor planet in the next few days. The field of view is optimized for (~10x50) binoculars and finderscopes. A more printer-friendly version of the same chart can be found below.




Ephemerides:
Date       Time       RA (2000)    DEC (2000)    delta   radius  elong  phase   PA    magn
2025-04-19 00:00 UT   10 33 40.3   -13 00 13    47.324   48.011  132.7    0.9    93   19.1 
2025-04-19 21:29 UT   10 33 38.2   -12 59 43    47.334   48.010  131.9    0.9    94   19.1 
2025-04-20 00:00 UT   10 33 37.9   -12 59 40    47.335   48.010  131.8    0.9    94   19.1 
2025-04-21 00:00 UT   10 33 35.6   -12 59 07    47.346   48.010  131.0    0.9    94   19.1 
2025-04-22 00:00 UT   10 33 33.4   -12 58 33    47.357   48.010  130.1    0.9    95   19.1 
2025-04-23 00:00 UT   10 33 31.2   -12 58 00    47.369   48.010  129.2    0.9    96   19.1 
2025-04-24 00:00 UT   10 33 29.1   -12 57 27    47.380   48.010  128.3    0.9    96   19.1 
2025-04-25 00:00 UT   10 33 27.1   -12 56 54    47.392   48.010  127.4    1.0    97   19.1 
2025-04-26 00:00 UT   10 33 25.2   -12 56 22    47.404   48.010  126.6    1.0    97   19.1 
2025-04-27 00:00 UT   10 33 23.3   -12 55 49    47.416   48.010  125.7    1.0    98   19.1 
2025-04-28 00:00 UT   10 33 21.5   -12 55 16    47.429   48.010  124.8    1.0    98   19.1 
2025-04-29 00:00 UT   10 33 19.7   -12 54 44    47.441   48.010  123.9    1.0    99   19.1 
2025-04-30 00:00 UT   10 33 18.1   -12 54 12    47.454   48.010  123.0    1.0    99   19.1 
2025-05-01 00:00 UT   10 33 16.5   -12 53 40    47.467   48.010  122.1    1.0   100   19.1 
2025-05-02 00:00 UT   10 33 14.9   -12 53 08    47.480   48.010  121.2    1.0   100   19.1 
2025-05-03 00:00 UT   10 33 13.5   -12 52 37    47.493   48.010  120.3    1.0   101   19.1 
2025-05-04 00:00 UT   10 33 12.1   -12 52 05    47.507   48.010  119.4    1.0   101   19.1 
2025-05-05 00:00 UT   10 33 10.8   -12 51 34    47.520   48.010  118.5    1.1   102   19.1 
2025-05-06 00:00 UT   10 33 09.6   -12 51 04    47.534   48.010  117.6    1.1   102   19.1 
2025-05-07 00:00 UT   10 33 08.5   -12 50 33    47.547   48.010  116.7    1.1   102   19.1 
2025-05-08 00:00 UT   10 33 07.4   -12 50 03    47.561   48.010  115.8    1.1   103   19.1 
2025-05-09 00:00 UT   10 33 06.4   -12 49 33    47.575   48.010  114.9    1.1   103   19.1 
2025-05-10 00:00 UT   10 33 05.5   -12 49 03    47.589   48.009  114.0    1.1   104   19.1 
2025-05-11 00:00 UT   10 33 04.6   -12 48 33    47.604   48.009  113.1    1.1   104   19.1 
2025-05-12 00:00 UT   10 33 03.9   -12 48 04    47.618   48.009  112.2    1.1   104   19.1 
2025-05-13 00:00 UT   10 33 03.2   -12 47 35    47.633   48.009  111.3    1.1   105   19.1 
2025-05-14 00:00 UT   10 33 02.6   -12 47 07    47.647   48.009  110.4    1.1   105   19.1 
2025-05-15 00:00 UT   10 33 02.0   -12 46 39    47.662   48.009  109.5    1.1   106   19.1 
2025-05-16 00:00 UT   10 33 01.6   -12 46 11    47.677   48.009  108.6    1.1   106   19.1 
2025-05-17 00:00 UT   10 33 01.2   -12 45 43    47.692   48.009  107.7    1.1   106   19.1 
2025-05-18 00:00 UT   10 33 00.9   -12 45 16    47.706   48.009  106.8    1.2   107   19.1 
2025-05-19 00:00 UT   10 33 00.7   -12 44 49    47.722   48.009  105.9    1.2   107   19.1 


    Terminology:
            
    delta:  distance between minor planet and earth in AU
    radius: distance between minor planet and sun in AU
    magn:   magnitude (brightness) estimate    
    ra:     right ascension in hours (24h = 360deg)
    dec:    declination in degrees
    elong:  elongation in degrees (angle sun-earth-minor planet)    
    phase:  phase angle in degrees (angle sun-minor planet-earth)        
    AU:     Astronomical Unit (mean distance between earth and sun: 149597870.7 km
    

Orbital elements provided by the MPC (Minor Planet Center).
Calculations by a modified version of AAPlus, a C# implementation of the AA+ project by PJ Naughter from the algorithms presented in the book "Astronomical Algorithms" by Jean Meeus.
NGC2000 dso catalog and star labels from VizieR as provided by the Strasbourg astronomical Data Center.
Tycho2 catalog from the ESO archive.